WINNIPESAUKEE R @ TILTON: From 06/04/2019 02:00 to 06/18/2019 16:00

Date STAGE [FT] FLOW [CFS] AIR TEMPERATURE [DEGF]
06/18/2019 12:00 5.10 1570.0 67.3
06/18/2019 11:00 5.09 1570.0 66.1
06/18/2019 10:00 5.10 1570.0 64.6
06/18/2019 09:00 5.10 1570.0 58.7
06/18/2019 08:00 5.11 1580.0 56.6
06/18/2019 07:00 5.10 1570.0 54.4
06/18/2019 06:00 5.11 1580.0 54.2
06/18/2019 05:00 5.09 1570.0 54.3
06/18/2019 04:00 5.10 1570.0 55.3
06/18/2019 03:00 5.11 1580.0 55.5
06/18/2019 02:00 5.10 1570.0 55.4
06/18/2019 01:00 5.11 1580.0 56.1
06/18/2019 00:00 5.10 1570.0 57.9
06/17/2019 23:00 5.11 1580.0 61.2
06/17/2019 22:00 5.10 1570.0 64.7
06/17/2019 21:00 5.11 1580.0 71.7
06/17/2019 20:00 5.11 1580.0 76.9
06/17/2019 19:00 5.10 1570.0 77.8
06/17/2019 18:00 5.10 1570.0 78.4
06/17/2019 17:00 5.10 1570.0 77.1
06/17/2019 16:00 5.11 1580.0 77.4
06/17/2019 15:00 5.10 1570.0 74.2
06/17/2019 14:00 5.10 1570.0 74.0
06/17/2019 13:00 5.11 1580.0 74.2
06/17/2019 12:00 5.11 1580.0 71.1
06/17/2019 11:00 5.10 1570.0 69.9
06/17/2019 10:00 5.10 1570.0 68.3
06/17/2019 09:00 5.09 1570.0 64.7
06/17/2019 08:00 5.10 1570.0 59.0
06/17/2019 07:00 5.10 1570.0 54.4
06/17/2019 06:00 5.10 1570.0 55.3
06/17/2019 05:00 5.10 1570.0 57.2
06/17/2019 04:00 5.10 1570.0 59.6
06/17/2019 03:00 5.09 1570.0 60.9
06/17/2019 02:00 5.10 1570.0 62.1
06/17/2019 01:00 5.10 1570.0 62.4
06/17/2019 00:00 5.10 1570.0 62.9
06/16/2019 23:00 5.10 1570.0 63.0
06/16/2019 22:00 5.09 1570.0 63.6
06/16/2019 21:00 5.10 1570.0 65.4
06/16/2019 20:00 5.10 1570.0 65.7
06/16/2019 19:00 5.08 1560.0 66.0
06/16/2019 18:00 5.08 1560.0 66.1
06/16/2019 17:00 5.08 1560.0 66.2
06/16/2019 16:00 5.08 1560.0 66.7
06/16/2019 15:00 5.08 1560.0 65.9
06/16/2019 14:00 5.07 1550.0 65.9
06/16/2019 13:00 5.08 1560.0 67.0
06/16/2019 12:00 5.07 1550.0 66.7
06/16/2019 11:00 5.07 1550.0 66.5
06/16/2019 10:00 5.07 1550.0 66.3
06/16/2019 09:00 5.07 1550.0 65.3
06/16/2019 08:00 5.07 1550.0 65.8
06/16/2019 07:00 5.07 1550.0 66.1
06/16/2019 06:00 5.07 1550.0 65.7
06/16/2019 05:00 5.07 1550.0 67.8
06/16/2019 04:00 5.07 1550.0 69.2
06/16/2019 03:00 5.07 1550.0 69.2
06/16/2019 02:00 5.07 1550.0 70.1
06/16/2019 01:00 5.07 1550.0 70.6
06/16/2019 00:00 5.07 1550.0 70.7
06/15/2019 23:00 5.07 1550.0 68.3
06/15/2019 22:00 5.07 1550.0 70.0
06/15/2019 21:00 5.07 1550.0 73.6
06/15/2019 20:00 5.06 1550.0 76.7
06/15/2019 19:00 5.07 1550.0 78.2
06/15/2019 18:00 5.06 1550.0 79.4
06/15/2019 17:00 5.05 1540.0 79.6
06/15/2019 16:00 5.05 1540.0 78.5
06/15/2019 15:00 5.06 1550.0 77.3
06/15/2019 14:00 5.06 1550.0 75.6
06/15/2019 13:00 5.06 1550.0 75.2
06/15/2019 12:00 5.05 1540.0 70.4
06/15/2019 11:00 5.04 1530.0 67.8
06/15/2019 10:00 5.05 1540.0 62.6
06/15/2019 09:00 5.05 1540.0 59.5
06/15/2019 08:00 5.04 1530.0 54.0
06/15/2019 07:00 5.04 1530.0 49.5
06/15/2019 06:00 5.04 1530.0 48.7
06/15/2019 05:00 5.04 1530.0 49.0
06/15/2019 04:00 5.03 1530.0 49.8
06/15/2019 03:00 5.03 1530.0 51.0
06/15/2019 02:00 5.02 1520.0 52.1
06/15/2019 01:00 5.04 1530.0 53.4
06/15/2019 00:00 5.04 1530.0 55.1
06/14/2019 23:00 5.03 1530.0 58.2
06/14/2019 22:00 5.03 1530.0 59.2
06/14/2019 21:00 5.02 1520.0 60.0
06/14/2019 20:00 5.02 1520.0 61.9
06/14/2019 19:00 4.95 1470.0 64.8
06/14/2019 18:00 4.94 1470.0 65.1
06/14/2019 17:00 4.91 1450.0 66.1
06/14/2019 16:00 4.91 1450.0 67.0
06/14/2019 15:00 4.88 1430.0 67.3
06/14/2019 14:00 4.86 1420.0 68.1
06/14/2019 13:00 4.83 1400.0 65.3
06/14/2019 12:00 4.80 1380.0 64.0
06/14/2019 11:00 4.77 1360.0 60.1
06/14/2019 10:00 4.74 1340.0 56.2
06/14/2019 09:00 4.74 1340.0 53.5
06/14/2019 08:00 4.73 1330.0 51.7
06/14/2019 07:00 4.72 1330.0 50.5
06/14/2019 06:00 4.72 1330.0 49.7
06/14/2019 05:00 4.72 1330.0 49.1
06/14/2019 04:00 4.72 1330.0 48.6
06/14/2019 03:00 4.71 1320.0 48.2
06/14/2019 02:00 4.70 1310.0 48.1
06/14/2019 01:00 4.72 1330.0 49.0
06/14/2019 00:00 4.72 1330.0 50.3
06/13/2019 23:00 4.72 1330.0 51.1
06/13/2019 22:00 4.71 1320.0 51.1
06/13/2019 21:00 4.70 1310.0 51.3
06/13/2019 20:00 4.69 1310.0 51.0
06/13/2019 19:00 4.67 1300.0 50.9
06/13/2019 18:00 4.67 1300.0 50.5
06/13/2019 17:00 4.65 1280.0 50.2
06/13/2019 16:00 4.63 1270.0 51.7
06/13/2019 15:00 4.62 1270.0 52.0
06/13/2019 14:00 4.60 1250.0 53.9
06/13/2019 13:00 4.58 1240.0 56.7
06/13/2019 12:00 4.57 1230.0 56.3
06/13/2019 11:00 4.55 1220.0 56.8
06/13/2019 10:00 4.53 1210.0 56.7
06/13/2019 09:00 4.53 1210.0 57.0
06/13/2019 08:00 4.53 1210.0 55.0
06/13/2019 07:00 4.52 1200.0 53.7
06/13/2019 06:00 4.52 1200.0 53.9
06/13/2019 05:00 4.51 1200.0 54.2
06/13/2019 04:00 4.51 1200.0 55.3
06/13/2019 03:00 4.50 1190.0 55.9
06/13/2019 02:00 4.50 1190.0 57.5
06/13/2019 01:00 4.52 1200.0 58.5
06/13/2019 00:00 4.51 1200.0 60.7
06/12/2019 23:00 4.51 1200.0 61.8
06/12/2019 22:00 4.50 1190.0 65.8
06/12/2019 21:00 4.50 1190.0 71.6
06/12/2019 20:00 4.48 1180.0 74.3
06/12/2019 19:00 4.40 1130.0 75.6
06/12/2019 18:00 4.38 1120.0 75.1
06/12/2019 17:00 4.35 1100.0 74.9
06/12/2019 16:00 4.32 1090.0 74.0
06/12/2019 15:00 4.30 1070.0 72.4
06/12/2019 14:00 4.26 1050.0 71.4
06/12/2019 13:00 4.22 1030.0 70.2
06/12/2019 12:00 4.17 1000.0 71.6
06/12/2019 11:00 4.14 983.0 69.4
06/12/2019 10:00 4.14 983.0 66.3
06/12/2019 09:00 4.26 1050.0 57.0
06/12/2019 08:00 4.14 983.0 54.6
06/12/2019 07:00 4.13 978.0 46.4
06/12/2019 06:00 4.14 983.0 46.2
06/12/2019 05:00 4.14 983.0 47.2
06/12/2019 04:00 4.14 983.0 48.4
06/12/2019 03:00 4.13 978.0 49.9
06/12/2019 02:00 4.13 978.0 51.2
06/12/2019 01:00 4.14 983.0 54.7
06/12/2019 00:00 4.14 983.0 58.7
06/11/2019 23:00 4.14 983.0 60.4
06/11/2019 22:00 4.13 978.0 62.3
06/11/2019 21:00 4.13 978.0 64.8
06/11/2019 20:00 4.12 972.0 66.7
06/11/2019 19:00 4.07 944.0 67.5
06/11/2019 18:00 4.05 933.0 69.5
06/11/2019 17:00 4.05 933.0 72.5
06/11/2019 16:00 4.03 922.0 71.9
06/11/2019 15:00 4.02 917.0 69.4
06/11/2019 14:00 4.00 906.0 68.8
06/11/2019 13:00 3.98 895.0 65.6
06/11/2019 12:00 3.96 884.0 66.2
06/11/2019 11:00 3.94 874.0 66.5
06/11/2019 10:00 3.94 874.0 66.0
06/11/2019 09:00 3.94 874.0 65.3
06/11/2019 08:00 3.94 874.0 64.5
06/11/2019 07:00 3.90 852.0 63.9
06/11/2019 06:00 3.88 842.0 63.2
06/11/2019 05:00 3.88 842.0 63.2
06/11/2019 04:00 3.87 836.0 63.2
06/11/2019 03:00 3.86 831.0 63.6
06/11/2019 02:00 3.83 815.0 64.3
06/11/2019 01:00 3.88 842.0 66.2
06/11/2019 00:00 3.88 842.0 66.5
06/10/2019 23:00 3.87 836.0 67.4
06/10/2019 22:00 3.86 831.0 68.4
06/10/2019 21:00 3.83 815.0 71.1
06/10/2019 20:00 3.82 810.0 74.3
06/10/2019 19:00 3.71 754.0 77.7
06/10/2019 18:00 3.69 744.0 78.3
06/10/2019 17:00 3.66 729.0 79.6
06/10/2019 16:00 3.63 714.0 78.5
06/10/2019 15:00 3.60 699.0 76.4
06/10/2019 14:00 3.55 674.0 75.1
06/10/2019 13:00 3.50 650.0 75.0
06/10/2019 12:00 3.46 631.0 75.3
06/10/2019 11:00 3.45 626.0 72.3
06/10/2019 10:00 3.45 626.0 70.8
06/10/2019 09:00 3.45 626.0 64.4
06/10/2019 08:00 3.45 626.0 57.3
06/10/2019 07:00 3.45 626.0 51.9
06/10/2019 06:00 3.45 626.0 51.6
06/10/2019 05:00 3.46 631.0 52.1
06/10/2019 04:00 3.45 626.0 53.4
06/10/2019 03:00 3.46 631.0 54.6
06/10/2019 02:00 3.46 631.0 55.8
06/10/2019 01:00 3.45 626.0 57.1
06/10/2019 00:00 3.46 631.0 59.0
06/09/2019 23:00 3.45 626.0 61.4
06/09/2019 22:00 3.46 631.0 65.4
06/09/2019 21:00 3.46 631.0 71.6
06/09/2019 20:00 3.46 631.0 77.9
06/09/2019 19:00 3.46 631.0 79.1
06/09/2019 18:00 3.46 631.0 78.9
06/09/2019 17:00 3.46 631.0 79.3
06/09/2019 16:00 3.46 631.0 78.1
06/09/2019 15:00 3.47 636.0 78.4
06/09/2019 14:00 3.48 640.0 77.2
06/09/2019 13:00 3.48 640.0 74.9
06/09/2019 12:00 3.48 640.0 72.9
06/09/2019 11:00 3.48 640.0 70.3
06/09/2019 10:00 3.48 640.0 65.1
06/09/2019 09:00 3.48 640.0 60.7
06/09/2019 08:00 3.48 640.0 52.4
06/09/2019 07:00 3.48 640.0 45.4
06/09/2019 06:00 3.49 645.0 45.8
06/09/2019 05:00 3.48 640.0 46.7
06/09/2019 04:00 3.49 645.0 47.1
06/09/2019 03:00 3.49 645.0 48.4
06/09/2019 02:00 3.49 645.0 50.0
06/09/2019 01:00 3.49 645.0 51.7
06/09/2019 00:00 3.48 640.0 53.7
06/08/2019 23:00 3.49 645.0 56.9
06/08/2019 22:00 3.49 645.0 61.6
06/08/2019 21:00 3.49 645.0 70.8
06/08/2019 20:00 3.49 645.0 76.8
06/08/2019 19:00 3.50 650.0 77.7
06/08/2019 18:00 3.50 650.0 78.7
06/08/2019 17:00 3.51 655.0 78.1
06/08/2019 16:00 3.50 650.0 77.2
06/08/2019 15:00 3.51 655.0 75.8
06/08/2019 14:00 3.51 655.0 74.3
06/08/2019 13:00 3.52 660.0 74.2
06/08/2019 12:00 3.51 655.0 73.1
06/08/2019 11:00 3.52 660.0 71.1
06/08/2019 10:00 3.52 660.0 69.4
06/08/2019 09:00 3.52 660.0 64.5
06/08/2019 08:00 3.52 660.0 57.4
06/08/2019 07:00 3.53 664.0 48.4
06/08/2019 06:00 3.53 664.0 48.8
06/08/2019 05:00 3.53 664.0 50.4
06/08/2019 04:00 3.54 669.0 51.9
06/08/2019 03:00 3.54 669.0 53.6
06/08/2019 02:00 3.54 669.0 56.6
06/08/2019 01:00 3.53 664.0 59.2
06/08/2019 00:00 3.53 664.0 60.6
06/07/2019 23:00 3.54 669.0 62.8
06/07/2019 22:00 3.54 669.0 67.4
06/07/2019 21:00 3.54 669.0 71.1
06/07/2019 20:00 3.55 674.0 77.4
06/07/2019 19:00 3.56 679.0 80.1
06/07/2019 18:00 3.56 679.0 78.8
06/07/2019 17:00 3.57 684.0 80.2
06/07/2019 16:00 3.56 679.0 79.2
06/07/2019 15:00 3.57 684.0 78.1
06/07/2019 14:00 3.58 689.0 77.3
06/07/2019 13:00 3.58 689.0 75.6
06/07/2019 12:00 3.59 694.0 72.6
06/07/2019 11:00 3.60 699.0 70.3
06/07/2019 10:00 3.60 699.0 64.5
06/07/2019 09:00 3.60 699.0 61.8
06/07/2019 08:00 3.60 699.0 53.6
06/07/2019 07:00 3.61 704.0 46.0
06/07/2019 06:00 3.62 709.0 46.2
06/07/2019 05:00 3.62 709.0 47.4
06/07/2019 04:00 3.62 709.0 48.3
06/07/2019 03:00 3.62 709.0 50.1
06/07/2019 02:00 3.62 709.0 51.2
06/07/2019 01:00 3.62 709.0 53.5
06/07/2019 00:00 3.62 709.0 55.4
06/06/2019 23:00 3.62 709.0 58.5
06/06/2019 22:00 3.62 709.0 64.4
06/06/2019 21:00 3.62 709.0 72.1
06/06/2019 20:00 3.62 709.0 75.2
06/06/2019 19:00 3.63 714.0 76.3
06/06/2019 18:00 3.63 714.0 77.2
06/06/2019 17:00 3.63 714.0 76.6
06/06/2019 16:00 3.62 709.0 76.0
06/06/2019 15:00 3.62 709.0 74.3
06/06/2019 14:00 3.63 714.0 73.5
06/06/2019 13:00 3.62 709.0 74.1
06/06/2019 12:00 3.62 709.0 71.4
06/06/2019 11:00 3.62 709.0 69.1
06/06/2019 10:00 3.61 704.0 63.0
06/06/2019 09:00 3.61 704.0 60.3
06/06/2019 08:00 3.62 709.0 58.7
06/06/2019 07:00 3.63 714.0 58.1
06/06/2019 06:00 3.63 714.0 58.2
06/06/2019 05:00 3.62 709.0 58.4
06/06/2019 04:00 3.62 709.0 58.3
06/06/2019 03:00 3.61 704.0 58.2
06/06/2019 02:00 3.63 714.0 58.4
06/06/2019 01:00 3.63 714.0 59.0
06/06/2019 00:00 3.62 709.0 59.3
06/05/2019 23:00 3.62 709.0 61.3
06/05/2019 22:00 3.61 704.0 61.4
06/05/2019 21:00 3.63 714.0 63.4
06/05/2019 20:00 3.64 719.0 64.5
06/05/2019 19:00 3.72 759.0 65.9
06/05/2019 18:00 3.74 769.0 66.8
06/05/2019 17:00 3.77 784.0 69.8
06/05/2019 16:00 3.81 805.0 69.9
06/05/2019 15:00 3.84 821.0 70.6
06/05/2019 14:00 3.88 842.0 71.7
06/05/2019 13:00 3.91 858.0 67.2
06/05/2019 12:00 3.97 890.0 62.4
06/05/2019 11:00 4.01 911.0 58.2
06/05/2019 10:00 4.00 906.0 52.6
06/05/2019 09:00 4.01 911.0 51.8
06/05/2019 08:00 4.01 911.0 50.7
06/05/2019 07:00 4.01 911.0 50.2
06/05/2019 06:00 4.01 911.0 49.9
06/05/2019 05:00 4.02 917.0 50.4
06/05/2019 04:00 4.02 917.0 50.4
06/05/2019 03:00 4.02 917.0 50.7
06/05/2019 02:00 4.02 917.0 52.0
06/05/2019 01:00 4.01 911.0 53.8
06/05/2019 00:00 4.02 917.0 54.9
06/04/2019 23:00 4.02 917.0 56.2
06/04/2019 22:00 4.02 917.0 57.6
06/04/2019 21:00 4.02 917.0 60.1
06/04/2019 20:00 4.02 917.0 62.4
06/04/2019 19:00 4.03 922.0 64.1
06/04/2019 18:00 4.04 928.0 64.4
06/04/2019 17:00 4.04 928.0 64.8
06/04/2019 16:00 4.04 928.0 65.1
06/04/2019 15:00 4.05 933.0 65.5
06/04/2019 14:00 4.06 939.0 63.2
06/04/2019 13:00 4.06 939.0 64.1
06/04/2019 12:00 -- -- --
06/04/2019 11:00 -- -- --
06/04/2019 10:00 -- -- --
06/04/2019 09:00 -- -- --
06/04/2019 08:00 -- -- --
06/04/2019 07:00 -- -- --
06/04/2019 06:00 -- -- --
06/04/2019 05:00 -- -- --
06/04/2019 04:00 -- -- --
06/04/2019 03:00 -- -- --
06/04/2019 02:00 -- -- --